Location: Bergheim
(50.9593°N, 6.6400°E)
Time: 10:34:32
(UTC+02:00)

ISS - Pass Details

Date: 20 May 2021
Orbit: 417 x 422 km, 51.6° (Epoch: 13 June)

Event Time Altitude Azimuth Distance (km) Brightness Sun altitude
Rises 01:18:10 0° 284° (WNW) 2,370 0.3 -19.0°
Reaches altitude 10° 01:20:17 10° 282° (WNW) 1,505 -0.8 -19.0°
Enters shadow 01:23:17 61° 241° (WSW) 481 -3.7 -19.0°
